Regional Weather Roundup
Issued by NWS

Home | Current Version | Previous Version | Graphics & Text | Print | Product List | Glossary Off
Versions: 1 2 3 4 5 6 7 8 9 10 11 12 13 14 15 16 17 18 19 20 21 22 23 24 25 26 27 28 29 30 31 32 33 34 35 36 37 38 39 40 41 42 43 44 45 46 47 48 49 50

000
ASUS43 KMKX 201400
RWRWI

WISCONSIN REGIONAL WEATHER ROUNDUP
NATIONAL WEATHER SERVICE MILWAUKEE/SULLIVAN WI
900 AM CDT SAT SEP 20 2014

NOTE: "FAIR" INDICATES FEW OR NO CLOUDS BELOW 12,000 FEET WITH NO
SIGNIFICANT WEATHER AND/OR OBSTRUCTIONS TO VISIBILITY.

WIZ001-002-006>008-014>016-023>028-201500-
NORTHWEST WISCONSIN

CITY           SKY/WX    TMP DP  RH WIND       PRES   REMARKS
SUPERIOR ARPT  SUNNY     62  57  84 W6        29.70R
ASHLAND        CLOUDY    64  59  83 W9        29.68R
HAYWARD        CLOUDY    63  59  87 VRB5      29.72R
SIREN          PTSUNNY   63  59  88 W7        29.74S
RICE LAKE      CLOUDY    64  59  81 W8        29.75R
LADYSMITH      CLOUDY    67  63  86 W12       29.72R
EAU CLAIRE     CLOUDY    68  64  87 W9        29.72R
MENOMONIE      PTSUNNY   69  63  82 W13       29.73R
NEW RICHMOND   CLOUDY    63  60  91 NW8       29.76R
OSCEOLA        CLOUDY    63  62  96 NW7       29.79R
$$

WIZ003>005-009-010-017-018-201500-
NORTH CENTRAL WISCONSIN

CITY           SKY/WX    TMP DP  RH WIND       PRES   REMARKS
WOODRUFF       CLOUDY    67  62  84 W12G18    29.67R
RHINELANDER    CLOUDY    66  61  84 W13       29.69R
EAGLE RIVER    CLOUDY    67  62  84 W15G22    29.66R
LAND O LAKES   CLOUDY    67  62  83 W10       29.65S
PHILLIPS       CLOUDY    66  63  89 W6        29.68R
TOMAHAWK       CLOUDY    66  61  84 W7        29.70R
MEDFORD        CLOUDY    64  62  93 W14       29.72R
MERRILL        CLOUDY    65  63  91 W10       29.70S
$$

WIZ029-030-035-036-043>047-201500-
CENTRAL WISCONSIN

CITY           SKY/WX    TMP DP  RH WIND       PRES   REMARKS
WAUSAU         CLOUDY    66  62  87 W12       29.69S
MOSINEE        CLOUDY    64  64 100 W12G18    29.72S
MARSHFIELD     PTSUNNY   66  62  87 W12       29.72S
STEVENS POINT  MOSUNNY   64  61  90 SW9       29.73S
WAUPACA        SUNNY     65  64  96 S9        29.73S FOG
WAUTOMA        NOT AVBL
WISC RAPIDS    SUNNY     65  62  90 SW9       29.74S
CAMP DOUGLAS   NOT AVBL
$$

WIZ011>013-019>022-031-037>040-048>050-201500-
NORTHEAST WISCONSIN

CITY           SKY/WX    TMP DP  RH WIND       PRES   REMARKS
ANTIGO         CLOUDY    64  61  91 W15G21    29.70F
STURGEON BAY   CLOUDY    64  61  88 SW15G22   29.68R
GREEN BAY      CLOUDY    65  63  93 SW10G21   29.71S
MANITOWOC      NOT AVBL
APPLETON       PTSUNNY   64  63  94 SW15      29.74S
CLINTONVILLE   PTSUNNY   64  63  94 SW8       29.70S
OSHKOSH        CLOUDY    66  62  87 SW12G21   29.74F
$$

WIZ032>034-041-042-053>061-201500-
SOUTHWEST WISCONSIN

CITY           SKY/WX    TMP DP  RH WIND       PRES   REMARKS
LA CROSSE      CLOUDY    69  62  78 W3        29.77R
SPARTA         SUNNY     68  61  77 W7        29.76R
VIROQUA        FAIR      66  65  94 SW13G20   29.79R
BOSCOBEL       PTSUNNY   68  63  84 SW5       29.81R
PRAIRIE DU CHI PTSUNNY   67  61  80 W3        29.80R
PLATTEVILLE    FAIR      66  64  93 S7        29.83F
$$

WIZ056-057-062-063-064-067-068-201500-
SOUTH CENTRAL WISCONSIN

CITY           SKY/WX    TMP DP  RH WIND       PRES   REMARKS
BARABOO/DELLS  CLOUDY    64  61  90 SW7       29.77F
LONE ROCK      NOT AVBL
WATERTOWN      CLOUDY    64  63  95 SW9       29.82S
MADISON        CLOUDY    67  62  84 S10       29.80F
MIDDLETON      FAIR      67  64  90 SW9       29.80F
MONROE         CLOUDY    63  61  94 SW17      29.84R FOG
JANESVILLE     SUNNY     68  63  83 SW9       29.83R
$$

WIZ051-052-058>065-066-070>072-201500-
SOUTHEAST WISCONSIN

CITY           SKY/WX    TMP DP  RH WIND       PRES   REMARKS
MILWAUKEE      CLOUDY    65  58  78 SW10      29.82R
WAUKESHA       MOSUNNY   63  59  88 SW10      29.84R
MILWAUKEE/TIMM NOT AVBL
RACINE         CLOUDY    67  59  75 SW14G24   29.84R
BURLINGTON     CLOUDY    62  58  88 SW10      29.83R
KENOSHA        CLOUDY    65  58  78 SW13G24   29.82S
FOND DU LAC    CLOUDY    64  61  90 SW13G20   29.76F
SHEBOYGAN      CLOUDY    66  60  81 SW16      29.75F
WEST BEND      CLOUDY    64  59  82 SW12      29.79F
JUNEAU         CLOUDY    63  61  94 SW9       29.82S FOG
$$

LSZ147-162-201500-
LAKE SUPERIOR

STATION/POSITION TIME  TEMP    WIND        PRES    WAVE
                       AIR SEA DIR/SP/G            HT/PER
                 (UTC) (F)     (DEG/KT/KT) (MB)    (FT/S)
W MID LAKE BUOY  1250   54 47  230/ 12/ 14 1001.0R   1
DEVILS ISLAND    1300   57     230/ 19/ 21 1002.6R
PORT WING        1300   61     260/ 12/ 16 1004.7
SAXON HARBOR     1340   68     240/  6/  9 1004.4R
$$

LMZ867-665-643>646-201500-
LAKE MICHIGAN

STATION/POSITION TIME  TEMP    WIND        PRES    WAVE
                       AIR SEA DIR/SP/G            HT/PER
                 (UTC) (F)     (DEG/KT/KT) (MB)    (FT/S)
N MID LAKE BUOY  1250   59 58  200/ 16/ 17 1004.3F   6/ 8
NORTHPORT PIER   1300   65     260/  5/ 14 1003.7F
SISTER BAY       1227          250/ 13/ 16   N/A
KEWAUNEE LAKESHO 1300   65     240/ 10/ 12 1005.0F
SHEBOYGAN LAKESH 1300   65 53  210/ 10/ 11 1007.8R
PORT WASHINGTON  1300   67     270/  6/ 11 1009.1R
ATWATER BUOY     1300   63     210/ 16/ 19 1009.1F
MILWAUKEE LAKESH 1300   65     220/ 15/ 21   N/A
S MID LAKE BUOY  1250   64 64  200/ 21/ 27 1009.9F   4/ 6
KENOSHA   LAKESH 1300   65     220/ 15/ 22 1009.5F
$$

TC  - TEMPERATURE IN CELSIUS
VSB - VISIBILITY IN STATUTE MILES
WCI - WIND CHILL INDEX
HX  - HEAT INDEX




USA.gov is the U.S. government's official web portal to all federal, state and local government web resources and services.